Home   Weather   Apolda   Past weeks

Flag for Germany Past Weather in Apolda, Thuringia, Germany — Yesterday and Last 2 Weeks

Now
14 °F

Ice fog.


Feels Like: 6 °F
Forecast: 14 / 23 °F
Wind: 5 mph from Southwest

Location: Erfurt-Bindersleben

Current Time: Jan 22, 2017 at 9:35:01 pm

Latest Report: Jan 22, 2017 at 9:20 pm


Visibility: 0 mi

Pressure: 30.24 "Hg

Humidity: 100%

Dew Point: 14 °F

Location of ApoldaLocation

Past Weather in Apolda — Graph

°F

Apolda Temperature Yesterday

Maximum temperature yesterday: 32 °F (at 2:50 pm)
Minimum temperature yesterday: 21 °F (at 6:50 am)
Average temperature yesterday: 26 °F

High & Low Weather Summary for the Past Weeks

 TemperatureHumidityPressure
High39 °F (Jan 12, 11:20 am)100% (Jan 8, 5:20 am)30.69 "Hg (Jan 8, 5:20 am)
Low14 °F (Jan 19, 10:50 pm)59% (Jan 20, 2:50 pm)29.00 "Hg (Jan 13, 3:50 am)
Average28 °F87%30.14 "Hg
* Reported Jan 7 8:20 pm — Jan 22 8:20 pm, Apolda, Weather by CustomWeather, © 2017

Note: Actual official high and low records may vary slightly from our data, if they occured in-between our weather recording intervals... More about our weather records

Advertising

Apolda Weather History for the Previous 24 Hours

Scroll right to see more
 ConditionsComfort  
Time TempWeatherWind HumidityBarometerVisibility
8:20 pm
Sun, Jan 22
16 °FIce fog.1 mph100%30.24 "Hg0 mi
7:50 pm18 °FIce fog.2 mph93%30.24 "Hg0 mi
7:20 pm18 °FIce fog.2 mph100%30.24 "Hg0 mi
6:50 pm18 °FIce fog.2 mph100%30.24 "Hg0 mi
6:20 pm19 °FIce fog.2 mph100%30.24 "Hg0 mi
5:50 pm19 °FIce fog.1 mph100%30.24 "Hg0 mi
5:20 pm21 °FIce fog.1 mph100%30.24 "Hg0 mi
4:50 pm21 °FIce fog.1 mph100%30.24 "Hg0 mi
4:20 pm21 °FIce fog.1 mph100%30.24 "Hg0 mi
3:50 pm23 °FIce fog.1 mph100%30.24 "Hg0 mi
3:20 pm23 °FIce fog.1 mph100%30.24 "Hg0 mi
2:50 pm23 °FIce fog.1 mph100%30.24 "Hg0 mi
2:20 pm23 °FIce fog.2 mph100%30.27 "Hg0 mi
1:50 pm23 °FIce fog.2 mph100%30.27 "Hg0 mi
1:20 pm21 °FIce fog.2 mph100%30.27 "Hg0 mi
12:50 pm21 °FIce fog.2 mph100%30.27 "Hg0 mi
12:20 pm21 °FIce fog.1 mph100%30.30 "Hg0 mi
11:50 am19 °FIce fog.3 mph93%30.30 "Hg0 mi
11:20 am19 °FIce fog.3 mph93%30.30 "Hg0 mi
10:50 am19 °FIce fog.3 mph93%30.30 "Hg0 mi
10:20 am19 °FIce fog.3 mph93%30.30 "Hg0 mi
9:50 am19 °FIce fog.3 mph100%30.30 "Hg0 mi
9:20 am19 °FIce fog.3 mph100%30.33 "Hg0 mi
8:50 am19 °FIce fog.5 mph100%30.30 "Hg0 mi
8:20 am19 °FIce fog.3 mph100%30.33 "Hg0 mi
7:50 am19 °FIce fog.5 mph100%30.30 "Hg0 mi
7:20 am21 °FIce fog.3 mph100%30.33 "Hg0 mi
6:50 am21 °FIce fog.2 mph100%30.33 "Hg0 mi
6:20 am21 °FIce fog.2 mph100%30.33 "Hg0 mi
5:50 am21 °FIce fog.1 mph100%30.33 "Hg0 mi
5:20 am21 °FIce fog.2 mph100%30.33 "Hg0 mi
4:50 am23 °FIce fog.2 mph100%30.33 "Hg0 mi
4:20 am23 °FIce fog.2 mph100%30.33 "Hg0 mi
3:50 am23 °FIce fog.2 mph100%30.33 "Hg0 mi
3:20 am23 °FIce fog.2 mph100%30.33 "Hg0 mi
2:50 am23 °FIce fog.2 mph100%30.33 "Hg1 mi
2:20 am23 °FIce fog.2 mph100%30.36 "Hg2 mi
1:50 am23 °FIce fog.2 mph100%30.36 "Hg2 mi
1:20 am23 °FIce fog.5 mph93%30.36 "Hg3 mi
12:50 am23 °FIce fog.5 mph93%30.36 "Hg3 mi
12:20 am23 °FIce fog.5 mph93%30.36 "Hg3 mi
11:50 pm
Sat, Jan 21
23 °FIce fog.6 mph93%30.36 "Hg3 mi
11:20 pm23 °FIce fog.5 mph100%30.39 "Hg1 mi
10:50 pm25 °FIce fog.2 mph100%30.39 "Hg2 mi
10:20 pm25 °FIce fog.2 mph100%30.39 "Hg3 mi
9:50 pm25 °FClear.2 mph100%30.39 "Hg4 mi
9:20 pm25 °FClear.2 mph100%30.39 "Hg4 mi
Weather by CustomWeather, © 2017

See weather overviewHow to use our weather pages